This is the latest recevied weather packets stored in our database for station/object IW2NTF-3. If no packets are shown the sender has not sent any weather packets the latest 10 day(s).
| Time | Temp. | Humidity | Pressure | Rain* | Wind** | Luminosity | Snow |
|---|---|---|---|---|---|---|---|
| 1778333284 | 25° C | 47% | 1015.2 hPa | 0 mm | - | 816 W/m² | - |
| 1778333223 | 25° C | 48% | 1015.1 hPa | 0 mm | - | 816 W/m² | - |
| 1778333163 | 25° C | 47% | 1015.1 hPa | 0 mm | - | 810 W/m² | - |
| 1778333103 | 25° C | 46% | 1015.2 hPa | 0 mm | - | 809 W/m² | - |
| 1778333043 | 25° C | 46% | 1015.3 hPa | 0 mm | - | 802 W/m² | - |
| 1778332983 | 25° C | 46% | 1015.3 hPa | 0 mm | - | 809 W/m² | - |
| 1778332923 | 25° C | 46% | 1015.2 hPa | 0 mm | - | 798 W/m² | - |
| 1778332864 | 25° C | 46% | 1015.3 hPa | 0 mm | - | 795 W/m² | - |
| 1778332803 | 25° C | 45% | 1015.3 hPa | 0 mm | - | 805 W/m² | - |
| 1778332743 | 25.56° C | 45% | 1015.3 hPa | 0 mm | - | 817 W/m² | - |
| 1778332683 | 25.56° C | 45% | 1015.3 hPa | 0 mm | - | 817 W/m² | - |
| 1778332623 | 25.56° C | 45% | 1015.3 hPa | 0 mm | - | 812 W/m² | - |
| 1778332563 | 25.56° C | 44% | 1015.4 hPa | 0 mm | - | 826 W/m² | - |
| 1778332503 | 26.11° C | 44% | 1015.4 hPa | 0 mm | - | 824 W/m² | - |
| 1778332443 | 26.11° C | 44% | 1015.5 hPa | 0 mm | - | 823 W/m² | - |
| 1778332383 | 26.67° C | 44% | 1015.5 hPa | 0 mm | - | 826 W/m² | - |
| 1778332323 | 26.67° C | 45% | 1015.4 hPa | 0 mm | - | 831 W/m² | - |
| 1778332263 | 26.11° C | 46% | 1015.4 hPa | 0 mm | - | 835 W/m² | - |
| 1778332203 | 26.11° C | 46% | 1015.4 hPa | 0 mm | - | 835 W/m² | - |
| 1778332143 | 25.56° C | 46% | 1015.4 hPa | 0 mm | - | 840 W/m² | - |
| 1778332083 | 25.56° C | 46% | 1015.5 hPa | 0 mm | - | 803 W/m² | - |
| 1778332023 | 25.56° C | 47% | 1015.5 hPa | 0 mm | - | 793 W/m² | - |
| 1778331963 | 25.56° C | 46% | 1015.6 hPa | 0 mm | - | 810 W/m² | - |
| 1778331903 | 25.56° C | 47% | 1015.6 hPa | 0 mm | - | 821 W/m² | - |
| 1778331843 | 25.56° C | 46% | 1015.5 hPa | 0 mm | - | 842 W/m² | - |
* Rain latest hour (hover to see other rain measurements)
** Current wind speed in m/s (hover to see current wind gust speed)